Weather in Novoyarkovo

Russia / Novosibirsk Oblast     54°55′33″N   78°05′32″E
temp.,
°C
wind,
m/s
gust,
m/s
humid.,
%
clouds,
%
prec.,
mm/h
press.,
hPa
HPBL,
m
2 march, tue
tue201:00−17nne339694 0.1 101225
04:00−17n229689 0.1 101320
07:00−19nnw2210082 0.1 101520
10:00−19nnw229781 0.0 101620
13:00−16wsw119186 0.1 1016190
16:00−14wsw239194 0.0 1016281
19:00−16sw239596 0.0 101620
22:00−17ssw239796 0.0 101620
3 march, wed
wed301:00−18sw239798 0.0 101720
04:00−17ssw239799 0.1 101626
07:00−17ssw349799 0.1 101855
10:00−17ssw369793 0.1 1017121
13:00−14s579493 0.1 1018282
16:00−12ssw6992100 0.0 1017431
19:00−14s61293100 0.1 1017357
22:00−14ssw7149298 0.0 1017407
4 march, thu
thu401:00−11ssw8149499 0.5 1016533
04:00−9ssw81494100 1.0 1014510
07:00−9ssw81492100 1.4 1014454
10:00−7ssw81592100 0.3 1012502
13:00−4ssw101592100 0.6 1012730
16:00−2ssw91593100 0.4 1011800
19:00−2ssw91594100 0.9 1010821
22:00−3ssw101692100 0.6 1009703
5 march, fri
fri501:00−3ssw91694100 0.8 1008682
04:00−4ssw91591100 0.1 1007492
07:00−4ssw71394100 0.3 1006458
10:00−3sw71296100 0.6 1007511
13:00−5w7118783 0.8 1010554
16:00−7wsw712870 0.0 1013462
19:00−8ssw8168711 0.0 1015449
22:00−8ssw111993100 0.2 1015768
6 march, sat
sat601:00−6sw111888100 0.9 1014883
04:00−5sw111789100 0.1 1013849
07:00−5sw111794100 1.6 1013807
10:00−4sw101691100 0.8 1014728
13:00−4sw101489100 0.9 1014778
16:00−4sw91393100 0.2 1015746
19:00−5sw91289100 0.4 1016655
22:00−5sw61091100 0.1 1016488